Location: Cluny
(50.9333°N, 112.8167°W)
Time: 23:59:58
(UTC-07:00)

Amateur Radio Satellites - All Passes

Search period start: 03 March 2015 23:29
Search period end: 04 March 2015 23:29
Location: Cluny, 50.9333°N, 112.8167°W

Satellite Date Start Highest point End Downlink Frequencies (MHz)
Time Altitude Azimuth
DUCHIFAT 1 03 Mar 23:30:52 23:35:02 54° 100° (E) 23:39:09 145.980
PCSat 03 Mar 23:32:30 23:36:55 24° 332° (NNW) 23:41:18 145.827
TIGRISAT 03 Mar 23:33:05 23:37:23 86° 287° (WNW) 23:41:42 435.000
DANDE 03 Mar 23:41:53 23:47:12 31° 96° (E) 23:51:26 436.750
ANTELSAT 03 Mar 23:47:29 23:51:45 62° 287° (WNW) 23:56:02 437.575/2403.000
BEESAT 3 03 Mar 23:50:17 23:53:33 22° 28° (NNE) 23:56:50 437.485
ITUPSAT 1 03 Mar 23:50:36 23:54:12 22° 59° (ENE) 23:57:56 437.325
POPSAT HIP 1 03 Mar 23:52:28 23:56:45 88° 117° (ESE) 00:00:57 437.405
POLYITAN 1 03 Mar 23:52:38 23:56:55 90° 214° (SW) 00:01:08 437.675
CUSAT 1 04 Mar 00:03:35 00:09:09 53° 99° (E) 00:13:21 437.405
CUBEBUG 1 04 Mar 00:11:05 00:14:16 18° 271° (W) 00:17:20 437.445
NANOSAT C BR1 04 Mar 00:15:14 00:19:24 56° 289° (WNW) 00:23:30 145.865
BEESAT 2 04 Mar 00:17:15 00:20:52 27° 32° (NNE) 00:24:28 435.950
GONETS M04 04 Mar 00:18:10 00:25:45 31° 301° (WNW) 00:33:12
YUBILEINY 04 Mar 00:19:19 00:21:51 11° 34° (NE) 00:24:47 435.215
AIST 2 04 Mar 00:22:11 00:25:23 20° 24° (NNE) 00:28:36 435.215
TISAT 1 04 Mar 00:35:43 00:39:39 34° 264° (W) 00:43:33 437.305
SPROUT 04 Mar 00:36:48 00:40:42 31° 265° (W) 00:44:35 437.525
UNISAT 6 04 Mar 00:46:12 00:49:22 20° 299° (WNW) 00:52:29 437.425
QB50P1 04 Mar 00:48:50 00:52:30 28° 295° (WNW) 00:56:05 145.935-145.965
KKS-1 04 Mar 00:49:31 00:52:23 17° 58° (ENE) 00:55:21 437.445
SWISSCUBE 04 Mar 00:50:16 00:55:02 71° 71° (ENE) 00:59:51 437.505
BUGSAT 1 04 Mar 00:51:55 00:55:42 32° 294° (WNW) 00:59:22 437.445
QB50P2 04 Mar 00:53:16 00:56:49 26° 296° (WNW) 01:00:17 145.880/145.840
STARS 04 Mar 00:53:38 00:55:40 13° 55° (NE) 00:57:52 437.465
Oscar 19 04 Mar 00:56:11 00:59:32 18° 87° (E) 01:03:02 437.125/150
BEESAT 04 Mar 00:58:37 01:03:23 77° 74° (ENE) 01:08:13 436.000
SO-50 04 Mar 01:03:06 01:06:08 18° 113° (ESE) 01:09:23 436.795
DUCHIFAT 1 04 Mar 01:07:24 01:10:35 20° 299° (WNW) 01:13:39 145.980
TIGRISAT 04 Mar 01:11:29 01:13:34 13° 303° (WNW) 01:15:31 435.000
PCSat 04 Mar 01:19:19 01:22:18 15° 357° (N) 01:25:17 145.827
DANDE 04 Mar 01:24:43 01:30:32 43° 287° (WNW) 01:34:54 436.750
ITUPSAT 1 04 Mar 01:26:59 01:31:45 63° 258° (WSW) 01:36:33 437.325
BEESAT 3 04 Mar 01:28:02 01:32:13 88° 46° (NE) 01:36:20 437.485
POPSAT HIP 1 04 Mar 01:29:50 01:32:04 14° 303° (WNW) 01:34:10 437.405
POLYITAN 1 04 Mar 01:30:05 01:32:16 14° 303° (WNW) 01:34:19 437.675
RS-15 04 Mar 01:40:19 01:51:09 63° 324° (NW) 02:02:19 29.354- 29.394
CUSAT 1 04 Mar 01:47:54 01:52:07 22° 292° (WNW) 01:55:27 437.405
BEESAT 2 04 Mar 01:55:14 01:59:23 63° 234° (SW) 02:03:27 435.950
AIST 2 04 Mar 02:00:26 02:04:45 69° 46° (NE) 02:08:59 435.215
YUBILEINY 04 Mar 02:14:03 02:22:10 39° 63° (ENE) 02:30:21 435.215
Gurwin Techsat 1B 04 Mar 02:17:00 02:21:19 25° 91° (E) 02:25:44 435.225
KKS-1 04 Mar 02:24:04 02:28:33 75° 257° (WSW) 02:33:03 437.445
STARS 04 Mar 02:27:03 02:31:30 81° 74° (ENE) 02:35:57 437.465
SWISSCUBE 04 Mar 02:30:10 02:33:28 18° 272° (W) 02:36:39 437.505
Oscar 19 04 Mar 02:34:25 02:39:34 77° 288° (WNW) 02:44:42 437.125/150
ITAMSAT 1 04 Mar 02:35:59 02:40:58 43° 98° (E) 02:45:57 435.822/435.867
BEESAT 04 Mar 02:38:51 02:41:54 16° 273° (W) 02:44:48 436.000
SO-50 04 Mar 02:41:27 02:46:07 84° 312° (NW) 02:50:59 436.795
M-CUBED/EXP-1 PRIME 04 Mar 02:44:00 02:46:41 22° 57° (ENE) 02:49:31 437.505
AUBIESAT-1 04 Mar 02:44:47 02:47:22 21° 56° (ENE) 02:50:08 437.475
PCSat 04 Mar 03:03:50 03:07:49 20° 23° (NNE) 03:11:51 145.827
BEESAT 3 04 Mar 03:07:30 03:09:46 14° 247° (WSW) 03:11:52 437.485
AIST 2 04 Mar 03:39:50 03:42:57 19° 245° (WSW) 03:45:57 435.215
MOZHAYETS 4 04 Mar 03:46:16 03:50:36 45° 69° (ENE) 03:55:00
JAS-2 04 Mar 03:52:01 03:58:08 28° 88° (E) 04:04:43 435.910
RS-15 04 Mar 03:55:43 04:05:59 41° 355° (N) 04:16:37 29.354- 29.394
Gurwin Techsat 1B 04 Mar 03:56:28 04:01:43 58° 291° (WNW) 04:06:55 435.225
KKS-1 04 Mar 04:05:32 04:06:06 10° 277° (W) 04:06:25 437.445
STARS 04 Mar 04:06:15 04:08:38 14° 274° (W) 04:10:50 437.465
YUBILEINY 04 Mar 04:10:54 04:19:36 63° 267° (W) 04:28:13 435.215
AO-7 04 Mar 04:12:02 04:19:46 42° 97° (E) 04:27:33 29.400- 29.500
HORYU 2 04 Mar 04:14:04 04:18:33 74° 104° (ESE) 04:23:00 437.375
Oscar 19 04 Mar 04:15:12 04:18:12 15° 307° (NW) 04:21:03 437.125/150
ITAMSAT 1 04 Mar 04:15:43 04:20:25 34° 297° (WNW) 04:25:02 435.822/435.867
CUBESAT XI-V 04 Mar 04:15:48 04:17:24 12° 53° (NE) 04:19:10 437.345
M-CUBED/EXP-1 PRIME 04 Mar 04:18:26 04:21:32 33° 257° (WSW) 04:24:46 437.505
AUBIESAT-1 04 Mar 04:18:57 04:22:06 37° 256° (WSW) 04:25:26 437.475
PRISM 04 Mar 04:21:06 04:22:28 12° 55° (NE) 04:24:00 437.425
SO-50 04 Mar 04:23:23 04:27:22 25° 335° (NNW) 04:31:25 436.795
PCSat 04 Mar 04:47:02 04:52:25 57° 46° (NE) 04:57:46 145.827
STRAND 1 04 Mar 04:56:56 05:00:33 20° 57° (ENE) 05:04:19 437.568
MOZHAYETS 4 04 Mar 05:24:14 05:28:04 25° 268° (W) 05:31:52
JAS-2 04 Mar 05:36:31 05:43:51 79° 289° (WNW) 05:51:42 435.910
Gurwin Techsat 1B 04 Mar 05:38:28 05:40:44 13° 310° (NW) 05:42:48 435.225
CUBESAT XI-V 04 Mar 05:49:22 05:54:01 64° 72° (ENE) 05:58:43 437.345
HORYU 2 04 Mar 05:51:47 05:54:45 17° 302° (WNW) 05:57:36 437.375
PRISM 04 Mar 05:53:08 05:57:17 75° 73° (ENE) 06:01:30 437.425
AO-7 04 Mar 06:04:51 06:12:58 59° 299° (WNW) 06:20:59 29.400- 29.500
SO-50 04 Mar 06:06:24 06:09:29 16° 359° (N) 06:12:36 436.795
YUBILEINY 04 Mar 06:10:00 06:14:43 15° 289° (WNW) 06:18:58 435.215
RS-15 04 Mar 06:10:22 06:21:15 53° 28° (NNE) 06:32:40 29.354- 29.394
Cubesat XI-IV 04 Mar 06:15:11 06:19:58 32° 94° (E) 06:24:46 437.490
CUTE-I 04 Mar 06:23:35 06:28:32 37° 96° (E) 06:33:29 437.470
GONETS M04 04 Mar 06:27:27 06:31:56 15° 41° (NE) 06:36:48
PCSat 04 Mar 06:30:51 06:35:37 31° 247° (WSW) 06:40:18 145.827
STRAND 1 04 Mar 06:34:05 06:39:14 79° 255° (WSW) 06:44:28 437.568
JAS-2 04 Mar 07:22:34 07:28:05 24° 307° (NW) 07:33:43 435.910
AIST 1 04 Mar 07:26:37 07:30:58 71° 98° (E) 07:35:23
CUBESAT XI-V 04 Mar 07:28:33 07:31:58 19° 272° (W) 07:35:16 437.345
PRISM 04 Mar 07:31:10 07:33:23 14° 273° (W) 07:35:28 437.425
HO-68 04 Mar 07:36:33 07:39:12 12° 79° (E) 07:42:17 435.675
SO-50 04 Mar 07:47:43 07:51:39 23° 23° (NNE) 07:55:39 436.795
Cubesat XI-IV 04 Mar 07:55:07 08:00:16 46° 294° (WNW) 08:05:22 437.490
BRITE-PL 04 Mar 07:57:21 08:00:00 16° 85° (E) 08:02:44 437.365/2234.400
AO-7 04 Mar 07:58:35 08:04:15 20° 322° (NW) 08:09:42 29.400- 29.500
CUTE-I 04 Mar 08:03:40 08:08:42 41° 295° (WNW) 08:13:40 437.470
STRAND 1 04 Mar 08:16:57 08:19:25 13° 276° (W) 08:21:39 437.568
DOVE 4 04 Mar 08:20:55 08:22:20 12° 84° (E) 08:23:56 437.250
GONETS M04 04 Mar 08:23:04 08:31:33 51° 69° (ENE) 08:40:05
RS-15 04 Mar 08:23:14 08:34:32 75° 235° (SW) 08:46:20 29.354- 29.394
SEEDS 04 Mar 08:34:39 08:37:35 18° 89° (E) 08:40:37 437.485
UNISAT 6 04 Mar 08:38:27 08:40:43 14° 57° (ENE) 08:43:06 437.425
CANX-2 04 Mar 08:40:17 08:43:51 26° 93° (E) 08:47:28 2200.000
DUCHIFAT 1 04 Mar 08:55:31 08:57:10 12° 56° (NE) 08:58:59 145.980
CUTE 1.7 + AOD 2 04 Mar 08:58:25 09:02:19 35° 96° (E) 09:06:16 437.475
TIGRISAT 04 Mar 09:01:29 09:04:44 21° 62° (ENE) 09:08:03 435.000
AIST 1 04 Mar 09:06:24 09:09:14 16° 299° (WNW) 09:11:57
O/OREOS (USA 219) 04 Mar 09:14:44 09:18:57 39° 109° (ESE) 09:23:16 437.305
ANTELSAT 04 Mar 09:15:33 09:19:15 28° 65° (ENE) 09:22:59 437.575/2403.000
POPSAT HIP 1 04 Mar 09:15:59 09:18:53 18° 60° (ENE) 09:21:54 437.405
POLYITAN 1 04 Mar 09:16:20 09:19:17 19° 60° (ENE) 09:22:20 437.675
UWE-3 04 Mar 09:20:07 09:21:46 12° 85° (E) 09:23:37 435.000/436.395/437.385
HO-68 04 Mar 09:21:34 09:28:42 60° 102° (ESE) 09:35:48 435.675
ISS 04 Mar 09:25:23 09:28:13 29° 149° (SSE) 09:31:05 145.825
SO-50 04 Mar 09:28:06 09:33:02 70° 45° (NE) 09:37:58 436.795
GOMX 1 04 Mar 09:30:15 09:34:44 76° 102° (ESE) 09:38:57 467.674
BRITE-PL 04 Mar 09:34:37 09:39:16 70° 287° (WNW) 09:43:34 437.365/2234.400
AAUSAT CUBESAT 2 04 Mar 09:35:28 09:39:35 51° 99° (E) 09:43:42 437.432
NANOSAT C BR1 04 Mar 09:37:36 09:41:12 27° 64° (ENE) 09:44:52 145.865
Cubesat XI-IV 04 Mar 09:38:11 09:39:14 10° 314° (NW) 09:40:02 437.490
COMPASS 1 04 Mar 09:39:28 09:43:39 64° 101° (ESE) 09:47:50 437.405
Oscar 11 04 Mar 09:41:09 09:45:01 31° 95° (E) 09:48:54 145.826/435.025
CINEMA 3 04 Mar 09:51:15 09:55:20 48° 99° (E) 09:59:21 145.822/145.860
DOVE 4 04 Mar 09:56:35 10:00:56 85° 285° (WNW) 10:05:06 437.250
CUBEBUG 2 04 Mar 09:59:54 10:03:43 34° 96° (E) 10:07:32 437.445
DX 1 04 Mar 10:08:40 10:12:26 28° 94° (E) 10:16:14 434.975-435.025
SEEDS 04 Mar 10:09:38 10:13:47 55° 289° (WNW) 10:17:55 437.485
QB50P1 04 Mar 10:10:15 10:14:25 54° 71° (ENE) 10:18:37 145.935-145.965
BUGSAT 1 04 Mar 10:11:11 10:15:13 42° 69° (ENE) 10:19:17 437.445
UNISAT 6 04 Mar 10:12:36 10:16:59 87° 257° (WSW) 10:21:19 437.425
QB50P2 04 Mar 10:14:42 10:18:55 60° 72° (ENE) 10:23:09 145.880/145.840
CANX-2 04 Mar 10:15:57 10:19:56 39° 292° (WNW) 10:23:54 2200.000
DANDE 04 Mar 10:19:01 10:20:53 16° 64° (ENE) 10:22:42 436.750
GONETS M04 04 Mar 10:20:13 10:28:24 46° 272° (W) 10:36:33
HUMSAT D 04 Mar 10:20:44 10:23:57 22° 92° (E) 10:27:15 437.325/437.525
AISAT 04 Mar 10:20:49 10:23:49 18° 89° (E) 10:26:55 437.250
DUCHIFAT 1 04 Mar 10:28:05 10:32:22 78° 74° (ENE) 10:36:39 145.980
VELOX 1 04 Mar 10:29:13 10:32:34 21° 91° (E) 10:35:58 145.980
FUNcube-1 04 Mar 10:29:32 10:33:34 47° 99° (E) 10:37:36 145.935
ZACube-1 04 Mar 10:31:28 10:35:32 50° 99° (E) 10:39:36 437.345
DELFI C3 04 Mar 10:32:22 10:36:29 80° 102° (ESE) 10:40:35 145.870
CUTE 1.7 + AOD 2 04 Mar 10:34:29 10:38:13 29° 294° (WNW) 10:41:53 437.475
UKube-1 04 Mar 10:35:37 10:39:51 47° 100° (E) 10:44:04 .
RS-15 04 Mar 10:36:51 10:45:19 24° 258° (WSW) 10:53:30 29.354- 29.394
TIGRISAT 04 Mar 10:36:58 10:41:15 52° 260° (W) 10:45:29 435.000
CUSAT 1 04 Mar 10:37:25 10:39:56 37° 72° (ENE) 10:42:25 437.405
POPSAT HIP 1 04 Mar 10:50:08 10:54:24 64° 258° (WSW) 10:58:41 437.405
POLYITAN 1 04 Mar 10:50:36 10:54:51 62° 258° (WSW) 10:59:07 437.675
ESTCUBE 1 04 Mar 10:51:48 10:55:00 19° 89° (E) 10:58:18 437.505/2401.250
ANTELSAT 04 Mar 10:51:55 10:56:00 37° 263° (W) 11:00:01 437.575/2403.000
O/OREOS (USA 219) 04 Mar 10:54:16 10:58:28 33° 310° (NW) 11:02:40 437.305
UWE-3 04 Mar 10:54:49 10:59:00 80° 286° (WNW) 11:03:10 435.000/436.395/437.385
ISS 04 Mar 11:01:11 11:04:25 88° 180° (S) 11:07:41 145.825
SO-50 04 Mar 11:09:16 11:13:14 24° 244° (WSW) 11:17:06 436.795
GOMX 1 04 Mar 11:09:33 11:12:20 16° 303° (WNW) 11:14:54 467.674
HO-68 04 Mar 11:09:41 11:16:12 38° 303° (WNW) 11:22:37 435.675
AAUSAT CUBESAT 2 04 Mar 11:11:46 11:14:57 21° 298° (WNW) 11:18:04 437.432
NANOSAT C BR1 04 Mar 11:12:56 11:16:58 39° 263° (W) 11:21:00 145.865
BRITE-PL 04 Mar 11:15:10 11:16:56 12° 308° (NW) 11:18:29 437.365/2234.400
COMPASS 1 04 Mar 11:16:06 11:18:58 18° 300° (WNW) 11:21:45 437.405
Oscar 11 04 Mar 11:17:18 11:21:14 34° 293° (WNW) 11:25:08 145.826/435.025
CINEMA 3 04 Mar 11:29:04 11:32:19 21° 298° (WNW) 11:35:27 145.822/145.860
50 SAT 04 Mar 11:33:03 11:37:02 85° 103° (ESE) 11:41:00 437.505
DOVE 4 04 Mar 11:36:04 11:38:03 13° 305° (NW) 11:39:52 437.250
CUBEBUG 2 04 Mar 11:36:46 11:40:23 28° 295° (WNW) 11:43:56 437.445
AO-7 04 Mar 11:40:34 11:42:43 11° 19° (NNE) 11:45:02 29.400- 29.500
DX 1 04 Mar 11:44:43 11:48:49 38° 293° (WNW) 11:52:50 434.975-435.025
BUGSAT 1 04 Mar 11:47:21 11:50:54 24° 267° (W) 11:54:24 437.445
QB50P1 04 Mar 11:47:30 11:50:40 19° 270° (W) 11:53:45 145.935-145.965
QB50P2 04 Mar 11:52:19 11:55:17 17° 271° (W) 11:58:06 145.880/145.840
UNISAT 6 04 Mar 11:53:04 11:54:33 11° 275° (W) 11:55:49 437.425
CUBEBUG 1 04 Mar 11:53:18 11:57:43 61° 101° (E) 12:02:04 437.445
HUMSAT D 04 Mar 11:56:03 11:59:58 42° 291° (WNW) 12:03:52 437.325/437.525
AISAT 04 Mar 11:56:29 12:00:55 62° 289° (WNW) 12:05:17 437.250
DANDE 04 Mar 12:02:16 12:04:11 17° 268° (W) 12:05:59 436.750
VELOX 1 04 Mar 12:05:08 12:09:30 53° 290° (WNW) 12:13:49 145.980
FUNcube-1 04 Mar 12:06:28 12:09:43 22° 297° (WNW) 12:12:52 145.935
DUCHIFAT 1 04 Mar 12:06:36 12:08:50 14° 274° (W) 12:10:54 145.980
Gurwin Techsat 1B 04 Mar 12:06:40 12:09:02 13° 50° (NE) 12:11:36 435.225
ZACube-1 04 Mar 12:08:29 12:11:39 21° 298° (WNW) 12:14:45 437.345
DELFI C3 04 Mar 12:08:55 12:11:11 14° 301° (WNW) 12:13:21 145.870
UKube-1 04 Mar 12:12:16 12:15:47 24° 298° (WNW) 12:19:13 .
TISAT 1 04 Mar 12:15:24 12:19:00 27° 94° (E) 12:22:38 437.305
Oscar 19 04 Mar 12:17:33 12:22:21 42° 66° (ENE) 12:27:11 437.125/150
SPROUT 04 Mar 12:18:10 12:22:03 32° 95° (E) 12:25:55 437.525
ITAMSAT 1 04 Mar 12:21:30 12:25:15 21° 57° (ENE) 12:29:07 435.822/435.867
ESTCUBE 1 04 Mar 12:27:48 12:32:20 61° 289° (WNW) 12:36:50 437.505/2401.250
UWE-3 04 Mar 12:33:19 12:34:55 12° 304° (NW) 12:36:22 435.000/436.395/437.385
ISS 04 Mar 12:37:41 12:40:56 82° 7° (N) 12:44:11 145.825
SWISSCUBE 04 Mar 12:47:25 12:49:27 13° 84° (E) 12:51:43 437.505
BEESAT 04 Mar 12:55:22 12:57:48 14° 85° (E) 13:00:26 436.000
HO-68 04 Mar 12:59:33 13:02:04 12° 326° (NW) 13:04:20 435.675
50 SAT 04 Mar 13:09:38 13:11:30 13° 302° (WNW) 13:13:15 437.505
ITUPSAT 1 04 Mar 13:23:00 13:26:53 24° 91° (E) 13:30:50 437.325
AO-7 04 Mar 13:26:13 13:32:45 27° 45° (NE) 13:39:26 29.400- 29.500
CUBEBUG 1 04 Mar 13:30:28 13:33:43 20° 300° (WNW) 13:36:52 437.445
AISAT 04 Mar 13:35:36 13:36:43 11° 308° (NW) 13:37:39 437.250
HORYU 2 04 Mar 13:42:26 13:45:32 19° 59° (ENE) 13:48:43 437.375
Gurwin Techsat 1B 04 Mar 13:42:52 13:48:06 62° 70° (ENE) 13:53:23 435.225
TISAT 1 04 Mar 13:51:00 13:54:56 37° 293° (WNW) 13:58:49 437.305
SPROUT 04 Mar 13:54:17 13:58:09 32° 294° (WNW) 14:01:58 437.525
Oscar 19 04 Mar 13:57:12 14:01:50 33° 265° (W) 14:06:27 437.125/150
ITAMSAT 1 04 Mar 13:59:00 14:04:14 78° 255° (WSW) 14:09:32 435.822/435.867
ESTCUBE 1 04 Mar 14:07:07 14:08:23 11° 307° (NW) 14:09:29 437.505/2401.250
KKS-1 04 Mar 14:11:30 14:14:01 15° 87° (E) 14:16:42 437.445
JAS-2 04 Mar 14:11:44 14:15:47 20° 50° (NE) 14:20:20 435.910
ISS 04 Mar 14:14:11 14:17:15 40° 207° (SSW) 14:20:18 145.825
STARS 04 Mar 14:14:41 14:15:25 10° 84° (E) 14:16:24 437.465
SWISSCUBE 04 Mar 14:23:18 14:28:10 85° 103° (ESE) 14:33:00 437.505
BEESAT 04 Mar 14:31:34 14:36:26 88° 284° (WNW) 14:41:14 436.000
ITUPSAT 1 04 Mar 15:00:24 15:05:07 52° 291° (WNW) 15:09:47 437.325
AO-7 04 Mar 15:16:14 15:24:36 82° 68° (ENE) 15:32:58 29.400- 29.500
HORYU 2 04 Mar 15:17:24 15:21:49 65° 258° (WSW) 15:26:14 437.375
YUBILEINY 04 Mar 15:22:16 15:29:48 35° 83° (E) 15:37:32 435.215
Gurwin Techsat 1B 04 Mar 15:24:19 15:28:34 23° 270° (W) 15:32:44 435.225
ITAMSAT 1 04 Mar 15:42:14 15:44:45 13° 276° (W) 15:47:00 435.822/435.867
KKS-1 04 Mar 15:46:48 15:51:16 74° 287° (WNW) 15:55:41 437.445
STARS 04 Mar 15:48:20 15:52:45 80° 103° (ESE) 15:57:08 437.465
JAS-2 04 Mar 15:54:12 15:59:54 82° 73° (ENE) 16:06:26 435.910
M-CUBED/EXP-1 PRIME 04 Mar 15:57:15 15:57:15 10° 91° (E) 15:57:31 437.505
SWISSCUBE 04 Mar 16:02:18 16:05:29 17° 304° (WNW) 16:08:33 437.505
Cubesat XI-IV 04 Mar 16:04:48 16:08:08 17° 53° (NE) 16:11:38 437.490
BEESAT 04 Mar 16:10:41 16:13:40 16° 305° (NW) 16:16:30 436.000
CUTE-I 04 Mar 16:12:45 16:16:24 19° 55° (NE) 16:20:11 437.470
ITUPSAT 1 04 Mar 16:41:16 16:42:03 10° 310° (NW) 16:42:37 437.325
BEESAT 3 04 Mar 17:04:16 17:07:53 31° 120° (ESE) 17:11:36 437.485
AO-7 04 Mar 17:11:27 17:18:25 28° 270° (W) 17:25:12 29.400- 29.500
MOZHAYETS 4 04 Mar 17:13:11 17:17:45 54° 100° (E) 17:22:20
YUBILEINY 04 Mar 17:17:28 17:26:11 66° 286° (WNW) 17:34:58 435.215
KKS-1 04 Mar 17:25:19 17:27:13 12° 306° (NW) 17:28:57 437.445
STARS 04 Mar 17:25:59 17:28:43 16° 303° (WNW) 17:31:19 437.465
M-CUBED/EXP-1 PRIME 04 Mar 17:28:39 17:32:51 73° 108° (ESE) 17:37:24 437.505
AUBIESAT-1 04 Mar 17:28:44 17:32:56 66° 108° (ESE) 17:37:28 437.475
AIST 1 04 Mar 17:28:51 17:32:48 31° 69° (ENE) 17:36:45
BEESAT 2 04 Mar 17:31:49 17:35:47 48° 124° (SE) 17:39:50 435.950
O/OREOS (USA 219) 04 Mar 17:40:23 17:44:26 30° 49° (NE) 17:48:30 437.305
AIST 2 04 Mar 17:41:52 17:45:27 27° 118° (ESE) 17:49:08 435.215
JAS-2 04 Mar 17:41:53 17:46:06 20° 277° (W) 17:50:27 435.910
Cubesat XI-IV 04 Mar 17:42:09 17:47:32 82° 74° (ENE) 17:52:59 437.490
CUBESAT XI-V 04 Mar 17:43:12 17:44:47 12° 83° (E) 17:46:37 437.345
CUTE-I 04 Mar 17:50:29 17:55:52 88° 248° (WSW) 18:01:19 437.470
HO-68 04 Mar 18:10:28 18:15:26 21° 47° (NE) 18:20:35 435.675
STRAND 1 04 Mar 18:40:02 18:44:11 24° 91° (E) 18:48:24 437.568
BEESAT 3 04 Mar 18:41:55 18:45:53 43° 320° (NW) 18:49:54 437.485
MOZHAYETS 4 04 Mar 18:51:01 18:54:42 23° 298° (WNW) 18:58:20
VERMONT LUNAR 04 Mar 18:52:35 18:54:37 15° 175° (S) 18:56:41 437.305
AAUSAT CUBESAT 2 04 Mar 18:59:55 19:00:27 10° 55° (NE) 19:01:09 437.432
COMPASS 1 04 Mar 19:03:02 19:04:43 12° 57° (ENE) 19:06:34 437.405
AUBIESAT-1 04 Mar 19:04:25 19:07:31 20° 304° (NW) 19:10:41 437.475
M-CUBED/EXP-1 PRIME 04 Mar 19:04:31 19:07:28 19° 305° (NW) 19:10:27 437.505
GOMX 1 04 Mar 19:05:56 19:10:01 24° 62° (ENE) 19:14:01 467.674
PRISM 04 Mar 19:06:16 19:10:29 61° 102° (ESE) 19:14:41 437.425
AIST 1 04 Mar 19:06:31 19:10:30 32° 269° (W) 19:14:24
BEESAT 2 04 Mar 19:10:21 19:14:08 32° 324° (NW) 19:17:56 435.950
BRITE-PL 04 Mar 19:11:33 19:16:34 37° 66° (ENE) 19:21:22 437.365/2234.400
PHONESAT 2.4 04 Mar 19:12:30 19:14:37 15° 171° (S) 19:16:45 2401.200-2431.200
CUBESAT XI-V 04 Mar 19:18:22 19:23:08 81° 102° (ESE) 19:27:51 437.345
YUBILEINY 04 Mar 19:19:07 19:25:14 19° 313° (NW) 19:31:03 435.215
O/OREOS (USA 219) 04 Mar 19:19:38 19:24:04 46° 249° (WSW) 19:28:26 437.305
AIST 2 04 Mar 19:19:40 19:23:52 52° 318° (NW) 19:28:06 435.215
CINEMA 3 04 Mar 19:23:22 19:25:36 14° 57° (ENE) 19:27:57 145.822/145.860
Cubesat XI-IV 04 Mar 19:24:43 19:28:24 18° 273° (W) 19:31:54 437.490
DOVE 4 04 Mar 19:30:00 19:34:05 27° 64° (ENE) 19:38:05 437.250
SEEDS 04 Mar 19:31:45 19:35:10 25° 64° (ENE) 19:38:39 437.485
CUTE-I 04 Mar 19:33:36 19:36:50 15° 275° (W) 19:39:53 437.470
PCSat 04 Mar 19:36:02 19:39:12 16° 106° (ESE) 19:42:35 145.827
CANX-2 04 Mar 19:38:10 19:42:00 35° 67° (ENE) 19:45:53 2200.000
GONETS M04 04 Mar 19:43:30 19:44:00 10° 66° (ENE) 19:45:09
DELFI C3 04 Mar 19:52:31 19:54:28 14° 58° (ENE) 19:56:33 145.870
HO-68 04 Mar 19:55:02 20:02:09 73° 68° (ENE) 20:09:19 435.675
CUTE 1.7 + AOD 2 04 Mar 19:56:10 20:00:12 48° 70° (ENE) 20:04:18 437.475
FUNcube-1 04 Mar 19:57:36 19:58:45 11° 56° (NE) 20:00:05 145.935
ZACube-1 04 Mar 19:59:23 20:00:50 12° 56° (NE) 20:02:27 437.345
UKube-1 04 Mar 20:02:15 20:04:08 13° 55° (NE) 20:06:10 .
STRAND 1 04 Mar 20:18:43 20:23:47 57° 291° (WNW) 20:28:49 437.568
UWE-3 04 Mar 20:21:42 20:24:58 21° 62° (ENE) 20:28:14 435.000/436.395/437.385
BEESAT 3 04 Mar 20:22:25 20:25:00 16° 342° (NNW) 20:27:32 437.485
VERMONT LUNAR 04 Mar 20:30:05 20:31:42 13° 192° (SSW) 20:33:18 437.305
AAUSAT CUBESAT 2 04 Mar 20:31:16 20:35:22 68° 73° (ENE) 20:39:31 437.432
COMPASS 1 04 Mar 20:35:40 20:39:49 84° 76° (ENE) 20:44:02 437.405
Oscar 11 04 Mar 20:40:43 20:44:48 45° 69° (ENE) 20:48:57 145.826/435.025
PRISM 04 Mar 20:42:35 20:45:37 19° 300° (WNW) 20:48:33 437.425
GOMX 1 04 Mar 20:42:36 20:47:52 62° 259° (W) 20:52:49 467.674
BRITE-PL 04 Mar 20:49:47 20:55:03 42° 264° (W) 21:00:03 437.365/2234.400
PHONESAT 2.4 04 Mar 20:50:07 20:52:15 15° 188° (S) 20:54:23 2401.200-2431.200
BEESAT 2 04 Mar 20:51:16 20:53:31 14° 348° (NNW) 20:55:44 435.950
50 SAT 04 Mar 20:51:56 20:53:53 14° 59° (ENE) 20:55:58 437.505
CUBESAT XI-V 04 Mar 20:56:54 21:00:03 18° 302° (WNW) 21:03:04 437.345
CINEMA 3 04 Mar 20:57:33 21:02:15 83° 75° (ENE) 21:06:46 145.822/145.860
AIST 2 04 Mar 21:00:28 21:03:25 17° 340° (NNW) 21:06:20 435.215
CUBEBUG 2 04 Mar 21:02:52 21:07:13 56° 72° (ENE) 21:11:28 437.445
DOVE 4 04 Mar 21:06:44 21:11:41 51° 261° (W) 21:16:20 437.250
SEEDS 04 Mar 21:06:53 21:10:51 40° 263° (W) 21:14:49 437.485
DX 1 04 Mar 21:08:54 21:13:06 47° 69° (ENE) 21:17:22 434.975-435.025
CANX-2 04 Mar 21:14:20 21:18:01 28° 266° (W) 21:21:41 2200.000
PCSat 04 Mar 21:16:29 21:21:55 84° 128° (SE) 21:27:24 145.827
HUMSAT D 04 Mar 21:17:32 21:21:13 31° 67° (ENE) 21:24:55 437.325/437.525
CUBEBUG 1 04 Mar 21:20:20 21:22:52 15° 57° (ENE) 21:25:32 437.445
AISAT 04 Mar 21:23:21 21:27:17 31° 65° (ENE) 21:31:16 437.250
DELFI C3 04 Mar 21:25:06 21:29:08 84° 256° (WSW) 21:33:14 145.870
FUNcube-1 04 Mar 21:30:08 21:34:26 72° 74° (ENE) 21:38:41 145.935
GONETS M04 04 Mar 21:30:37 21:38:43 48° 89° (E) 21:46:58
VELOX 1 04 Mar 21:31:34 21:35:38 35° 66° (ENE) 21:39:45 145.980
ZACube-1 04 Mar 21:32:15 21:36:35 76° 75° (ENE) 21:40:51 437.345
CUTE 1.7 + AOD 2 04 Mar 21:33:11 21:36:26 21° 269° (W) 21:39:37 437.475
UKube-1 04 Mar 21:35:17 21:39:38 79° 73° (ENE) 21:44:02 .
HO-68 04 Mar 21:44:34 21:50:36 28° 270° (W) 21:56:32 435.675
ESTCUBE 1 04 Mar 21:56:09 22:00:10 32° 65° (ENE) 22:04:14 437.505/2401.250
UWE-3 04 Mar 21:56:57 22:01:15 53° 260° (W) 22:05:27 435.000/436.395/437.385
STRAND 1 04 Mar 22:00:02 22:02:02 12° 311° (NW) 22:03:50 437.568
UNISAT 6 04 Mar 22:01:01 22:03:03 13° 86° (E) 22:05:16 437.425
BEESAT 3 04 Mar 22:02:53 22:04:40 12° 6° (N) 22:06:30 437.485
AAUSAT CUBESAT 2 04 Mar 22:09:06 22:11:33 15° 273° (W) 22:13:51 437.432
COMPASS 1 04 Mar 22:14:32 22:16:14 12° 275° (W) 22:17:43 437.405
Oscar 11 04 Mar 22:17:45 22:21:14 23° 268° (W) 22:24:39 145.826/435.025
TIGRISAT 04 Mar 22:24:01 22:27:17 21° 91° (E) 22:30:39 435.000
50 SAT 04 Mar 22:24:25 22:28:23 79° 257° (WSW) 22:32:22 437.505
BEESAT 2 04 Mar 22:31:12 22:33:19 13° 11° (N) 22:35:28 435.950
POPSAT HIP 1 04 Mar 22:31:43 22:34:08 15° 87° (E) 22:36:40 437.405
POLYITAN 1 04 Mar 22:32:22 22:34:52 16° 88° (E) 22:37:30 437.675
CINEMA 3 04 Mar 22:37:33 22:40:05 14° 274° (W) 22:42:24 145.822/145.860
ANTELSAT 04 Mar 22:38:39 22:42:25 29° 95° (E) 22:46:16 437.575/2403.000
CUBEBUG 2 04 Mar 22:41:04 22:44:17 19° 270° (W) 22:47:22 437.445
AIST 2 04 Mar 22:41:35 22:43:37 13° 4° (N) 22:45:41 435.215
DX 1 04 Mar 22:46:04 22:49:37 23° 268° (W) 22:53:08 434.975-435.025
NANOSAT C BR1 04 Mar 22:53:14 22:56:39 24° 92° (E) 23:00:06 145.865
RS-15 04 Mar 22:53:14 23:03:05 43° 112° (ESE) 23:13:14 29.354- 29.394
HUMSAT D 04 Mar 22:53:15 22:57:01 31° 265° (W) 23:00:43 437.325/437.525
CUBEBUG 1 04 Mar 22:54:13 22:58:41 86° 256° (WSW) 23:03:11 437.445
AISAT 04 Mar 22:59:39 23:03:51 37° 263° (W) 23:08:02 437.250
PCSat 04 Mar 23:01:20 23:06:00 28° 328° (NNW) 23:10:39 145.827
VELOX 1 04 Mar 23:08:11 23:12:15 32° 265° (W) 23:16:17 145.980
FUNcube-1 04 Mar 23:08:50 23:11:20 15° 273° (W) 23:13:40 145.935
ZACube-1 04 Mar 23:11:13 23:13:33 14° 273° (W) 23:15:41 437.345
TISAT 1 04 Mar 23:12:25 23:16:24 39° 68° (ENE) 23:20:26 437.305
UKube-1 04 Mar 23:14:03 23:16:26 14° 273° (W) 23:18:38 .
SPROUT 04 Mar 23:17:04 23:21:13 47° 70° (ENE) 23:25:25 437.525
